Location: Spruce Knob
(38.6995°N, 79.5330°W)
Time: 19:53:23
(UTC-04:00)

A-11 Canister half - Pass Details

Date: 05 February 2022
Orbit: 1513 x 1686 km, 47.2° (Epoch: 26 May)

Event Time Altitude Azimuth Distance (km) Brightness Sun altitude
Rises 13:54:18 0° 236° (SW) 4,866 12.4 32.3°
Reaches altitude 10° 13:57:28 10° 236° (SW) 3,860 12.1 32.0°
Maximum altitude 14:07:20 89° 148° (SSE) 1,592 9.7 31.2°
Drops below altitude 10° 14:16:50 10° 60° (ENE) 3,733 10.7 30.3°
Sets 14:19:51 0° 61° (ENE) 4,699 11.1 30.0°
